When you browse on this site, cookies collect data to enhance your experience and personalize the content and advertising you see.
Visit our Privacy Policy to learn more. By continuing to use the site, you agree to this use of cookies and data.
  • In United Kingdom
  • List of Countries
  • For 7 days
  • Water Temperature
  • Weather Map
  • Weather Widgets
  • user-avatar
    Login

    Hourly Weather Pazardzhik

    Today, 22 October, Tuesday

    Time Temperature Precipitation Wind Pressure Humidity
    00:00 +19°C° 0 mm 1 mps 748 mmHg 62%
    01:00 +18°C° 0 mm 1 mps 748 mmHg 65%
    02:00 +18°C° 0 mm 1 mps 748 mmHg 67%
    03:00 +16°C° 0 mm 1 mps 748 mmHg 68%
    04:00 +16°C° 0 mm 1 mps 748 mmHg 70%
    05:00 +16°C° 0 mm 1 mps 748 mmHg 72%
    06:00 +18°C° 0 mm 1 mps 748 mmHg 68%
    07:00 +19°C° 0 mm 1 mps 748 mmHg 65%
    08:00 +19°C° 0 mm 1 mps 749 mmHg 61%
    09:00 +22°C° 0 mm 1 mps 749 mmHg 54%
    10:00 +24°C° 0 mm 1 mps 749 mmHg 46%
    11:00 +26°C° 0 mm 1 mps 749 mmHg 39%
    12:00 +27°C° 0 mm 1 mps 749 mmHg 36%
    13:00 +27°C° 0 mm 2 mps 748 mmHg 33%
    14:00 +28°C° 0 mm 2 mps 748 mmHg 31%
    15:00 +27°C° 0 mm 2 mps 748 mmHg 34%
    16:00 +25°C° 0 mm 2 mps 748 mmHg 38%
    17:00 +24°C° 0 mm 1 mps 747 mmHg 41%
    18:00 +23°C° 0 mm 1 mps 748 mmHg 44%
    19:00 +21°C° 0 mm 1 mps 748 mmHg 47%
    20:00 +20°C° 0 mm 1 mps 748 mmHg 50%
    21:00 +19°C° 0 mm 1 mps 748 mmHg 53%
    22:00 +18°C° 0 mm 1 mps 748 mmHg 56%
    23:00 +18°C° 0 mm 1 mps 748 mmHg 59%

    Tomorrow, 23 October, Wednesday

    Time Temperature Precipitation Wind Pressure Humidity
    00:00 +16°C° 0 mm 1 mps 748 mmHg 61%
    01:00 +16°C° 0 mm 1 mps 748 mmHg 64%
    02:00 +15°C° 0 mm 1 mps 748 mmHg 67%
    03:00 +15°C° 0 mm 1 mps 748 mmHg 68%
    04:00 +15°C° 0 mm 1 mps 748 mmHg 68%
    05:00 +14°C° 0 mm 1 mps 748 mmHg 69%
    06:00 +15°C° 0 mm 1 mps 748 mmHg 65%
    07:00 +16°C° 0 mm 1 mps 748 mmHg 61%
    08:00 +18°C° 0 mm 1 mps 748 mmHg 57%
    09:00 +20°C° 0 mm 1 mps 748 mmHg 50%
    10:00 +23°C° 0 mm 1 mps 748 mmHg 43%
    11:00 +25°C° 0 mm 1 mps 748 mmHg 36%
    12:00 +26°C° 0 mm 1 mps 747 mmHg 33%
    13:00 +27°C° 0 mm 2 mps 747 mmHg 30%
    14:00 +27°C° 0 mm 2 mps 747 mmHg 28%
    15:00 +26°C° 0 mm 2 mps 746 mmHg 31%
    16:00 +24°C° 0 mm 2 mps 746 mmHg 34%
    17:00 +23°C° 0 mm 1 mps 746 mmHg 37%
    18:00 +22°C° 0 mm 1 mps 746 mmHg 39%
    19:00 +20°C° 0 mm 1 mps 746 mmHg 41%
    20:00 +19°C° 0 mm 1 mps 746 mmHg 43%
    21:00 +18°C° 0 mm 1 mps 746 mmHg 43%
    22:00 +18°C° 0 mm 1 mps 747 mmHg 43%
    23:00 +16°C° 0 mm 1 mps 747 mmHg 42%

    Day after tomorrow, 24 October, Thursday

    Time Temperature Precipitation Wind Pressure Humidity
    00:00 +16°C° 0 mm 1 mps 747 mmHg 43%
    01:00 +16°C° 0 mm 1 mps 746 mmHg 44%
    02:00 +15°C° 0 mm 1 mps 746 mmHg 45%
    03:00 +15°C° 0 mm 1 mps 746 mmHg 46%
    04:00 +15°C° 0 mm 1 mps 746 mmHg 47%
    05:00 +14°C° 0 mm 1 mps 746 mmHg 48%
    06:00 +15°C° 0 mm 1 mps 746 mmHg 47%
    07:00 +16°C° 0 mm 1 mps 746 mmHg 45%
    08:00 +16°C° 0 mm 0 mps 746 mmHg 44%
    09:00 +20°C° 0 mm 1 mps 746 mmHg 40%
    10:00 +22°C° 0 mm 1 mps 746 mmHg 35%
    11:00 +25°C° 0 mm 1 mps 746 mmHg 30%
    12:00 +25°C° 0 mm 1 mps 746 mmHg 29%
    13:00 +26°C° 0 mm 2 mps 745 mmHg 27%
    14:00 +27°C° 0 mm 2 mps 745 mmHg 26%
    15:00 +25°C° 0 mm 2 mps 745 mmHg 29%
    16:00 +24°C° 0 mm 1 mps 744 mmHg 33%
    17:00 +22°C° 0 mm 1 mps 744 mmHg 37%
    18:00 +21°C° 0 mm 1 mps 744 mmHg 39%
    19:00 +20°C° 0 mm 1 mps 744 mmHg 42%
    20:00 +18°C° 0 mm 1 mps 745 mmHg 44%
    21:00 +18°C° 0 mm 1 mps 745 mmHg 45%
    22:00 +16°C° 0 mm 1 mps 745 mmHg 46%
    23:00 +16°C° 0 mm 1 mps 745 mmHg 47%

    25 October, Friday

    Time Temperature Precipitation Wind Pressure Humidity
    00:00 +15°C° 0 mm 1 mps 745 mmHg 48%
    01:00 +15°C° 0 mm 1 mps 745 mmHg 49%
    02:00 +14°C° 0 mm 1 mps 745 mmHg 50%
    03:00 +14°C° 0 mm 1 mps 745 mmHg 52%
    04:00 +14°C° 0 mm 1 mps 745 mmHg 53%
    05:00 +14°C° 0 mm 1 mps 745 mmHg 54%
    06:00 +14°C° 0 mm 1 mps 745 mmHg 53%
    07:00 +15°C° 0 mm 1 mps 745 mmHg 51%
    08:00 +15°C° 0 mm 0 mps 746 mmHg 50%
    09:00 +19°C° 0 mm 1 mps 746 mmHg 44%
    10:00 +22°C° 0 mm 1 mps 746 mmHg 39%
    11:00 +24°C° 0 mm 1 mps 746 mmHg 33%
    12:00 +25°C° 0 mm 1 mps 746 mmHg 32%
    13:00 +25°C° 0 mm 2 mps 746 mmHg 30%
    14:00 +26°C° 0 mm 2 mps 745 mmHg 28%
    15:00 +24°C° 0 mm 2 mps 745 mmHg 31%
    16:00 +23°C° 0 mm 1 mps 745 mmHg 35%
    17:00 +22°C° 0 mm 1 mps 745 mmHg 38%
    18:00 +20°C° 0 mm 1 mps 745 mmHg 39%
    19:00 +19°C° 0 mm 1 mps 745 mmHg 41%
    20:00 +18°C° 0 mm 1 mps 746 mmHg 42%
    21:00 +16°C° 0 mm 1 mps 746 mmHg 43%
    22:00 +16°C° 0 mm 1 mps 746 mmHg 44%
    23:00 +15°C° 0 mm 1 mps 746 mmHg 46%

    26 October, Saturday

    Time Temperature Precipitation Wind Pressure Humidity
    00:00 +15°C° 0 mm 1 mps 746 mmHg 47%
    01:00 +15°C° 0 mm 1 mps 746 mmHg 48%
    02:00 +14°C° 0 mm 1 mps 746 mmHg 49%
    03:00 +14°C° 0 mm 1 mps 746 mmHg 50%
    04:00 +14°C° 0 mm 1 mps 746 mmHg 52%
    05:00 +14°C° 0 mm 1 mps 746 mmHg 53%
    06:00 +14°C° 0 mm 1 mps 746 mmHg 51%
    07:00 +15°C° 0 mm 1 mps 747 mmHg 49%
    08:00 +16°C° 0 mm 1 mps 747 mmHg 48%
    09:00 +19°C° 0 mm 1 mps 747 mmHg 42%
    10:00 +22°C° 0 mm 1 mps 747 mmHg 36%
    11:00 +24°C° 0 mm 1 mps 747 mmHg 30%
    12:00 +25°C° 0 mm 1 mps 747 mmHg 28%
    13:00 +25°C° 0 mm 2 mps 746 mmHg 27%
    14:00 +26°C° 0 mm 2 mps 746 mmHg 25%
    15:00 +25°C° 0 mm 2 mps 746 mmHg 28%
    16:00 +23°C° 0 mm 1 mps 745 mmHg 32%
    17:00 +22°C° 0 mm 1 mps 745 mmHg 35%
    18:00 +20°C° 0 mm 1 mps 745 mmHg 37%
    19:00 +19°C° 0 mm 1 mps 745 mmHg 39%
    20:00 +18°C° 0 mm 1 mps 746 mmHg 41%
    21:00 +16°C° 0 mm 1 mps 746 mmHg 41%
    22:00 +16°C° 0 mm 1 mps 746 mmHg 42%
    23:00 +15°C° 0 mm 1 mps 746 mmHg 43%

    27 October, Sunday

    Time Temperature Precipitation Wind Pressure Humidity
    00:00 +15°C° 0 mm 1 mps 746 mmHg 44%
    01:00 +15°C° 0 mm 1 mps 746 mmHg 44%
    02:00 +15°C° 0 mm 1 mps 746 mmHg 45%
    03:00 +14°C° 0 mm 1 mps 746 mmHg 46%
    04:00 +14°C° 0 mm 1 mps 746 mmHg 46%
    05:00 +14°C° 0 mm 1 mps 745 mmHg 47%
    06:00 +15°C° 0 mm 1 mps 745 mmHg 46%
    07:00 +16°C° 0 mm 1 mps 745 mmHg 44%
    08:00 +16°C° 0 mm 1 mps 746 mmHg 43%
    09:00 +20°C° 0 mm 1 mps 746 mmHg 37%
    10:00 +22°C° 0 mm 1 mps 746 mmHg 32%
    11:00 +25°C° 0 mm 1 mps 746 mmHg 26%
    12:00 +26°C° 0 mm 1 mps 745 mmHg 25%
    13:00 +27°C° 0 mm 1 mps 745 mmHg 23%
    14:00 +27°C° 0 mm 1 mps 745 mmHg 22%
    15:00 +26°C° 0 mm 1 mps 744 mmHg 25%
    16:00 +24°C° 0 mm 1 mps 744 mmHg 28%
    17:00 +23°C° 0 mm 1 mps 744 mmHg 31%
    18:00 +21°C° 0 mm 1 mps 744 mmHg 33%
    19:00 +20°C° 0 mm 1 mps 744 mmHg 35%
    20:00 +19°C° 0 mm 1 mps 745 mmHg 37%
    21:00 +18°C° 0 mm 1 mps 745 mmHg 38%
    22:00 +18°C° 0 mm 1 mps 745 mmHg 38%
    23:00 +16°C° 0 mm 2 mps 745 mmHg 39%
    Show more